Regional Weather Roundup
Issued by NWS Boston, MA

Home | Current Version | Previous Version | Text Only | Print | Product List | Glossary On
Versions: 1 2 3 4 5 6 7 8 9 10 11 12 13 14 15 16 17 18 19 20 21 22 23 24 25 26 27 28 29 30 31 32 33 34 35 36 37 38 39 40 41 42 43 44 45 46 47 48 49 50
000
ASUS41 KBOX 231410
RWRBOX

REGIONAL WEATHER ROUNDUP
NATIONAL WEATHER SERVICE TAUNTON MA
1000 AM EDT SUN JUL 23 2017

NOTE:  "FAIR" INDICATES FEW OR NO CLOUDS BELOW 12,000 FEET WITH NO
SIGNIFICANT WEATHER AND/OR OBSTRUCTIONS TO VISIBILITY.

MAZALL-231500-
EASTERN MASSACHUSETTS

CITY           SKY/WX    TMP DP  RH WIND       PRES   REMARKS
BOSTON         PTSUNNY   70  55  59 NE15      29.87R
BEVERLY        PTSUNNY   68  55  63 NE14      29.88R
LAWRENCE       CLOUDY    71  55  56 NE13      29.90R
BEDFORD        PTSUNNY   73  50  44 NE15G21   29.87R
BLUE HILL        N/A     69  53  56 NE13G24   29.87R
NORWOOD        MOSUNNY   71  56  58 NE13      29.86R
MARSHFIELD     CLOUDY    72  59  64 VRB7G13   29.86R
PLYMOUTH       CLOUDY    71  56  58 NE16G22   29.85R
TAUNTON        CLOUDY    73  51  46 NE8G18    29.84R
NEW BEDFORD    CLOUDY    72  55  55 NE9G21    29.82R
$$

MAZALL-231500-
CAPE COD AND THE ISLANDS

CITY           SKY/WX    TMP DP  RH WIND       PRES   REMARKS
FALMOUTH       CLOUDY    72  57  60 NE15      29.83R
HYANNIS        CLOUDY    72  55  55 E10G21    29.80R
CHATHAM        CLOUDY    71  59  65 NE17      29.83R
PROVINCETOWN   PTSUNNY   70  58  65 NE15G21   29.84R
NANTUCKET      CLOUDY    70  66  87 E5        29.80R
MARTHAS VNYRD  CLOUDY    73  67  81 NE13      29.80S
$$

MAZALL-231500-
CENTRAL AND WESTERN MASSACHUSETTS

CITY           SKY/WX    TMP DP  RH WIND       PRES   REMARKS
WORCESTER      SUNNY     68  51  54 E13       29.89R
FITCHBURG      CLOUDY    72  51  47 NE8G17    29.89R
ORANGE         SUNNY     72  52  49 E6        29.88R
SPRINGFIELD    MOSUNNY   74  53  47 E7        29.84R
WESTFIELD      SUNNY     75  54  47 NE9       29.85R
NORTH ADAMS    PTSUNNY   73  59  61 E6        29.84S
PITTSFIELD     SUNNY     72  57  59 E7        29.86R
$$

RIZALL-231500-
RHODE ISLAND

CITY           SKY/WX    TMP DP  RH WIND       PRES   REMARKS
PROVIDENCE     PTSUNNY   73  56  54 NE13      29.85R
NEWPORT        CLOUDY    71  60  68 NE12      29.82R
BLOCK ISLAND   CLOUDY    70  65  84 NE10G18   29.82R
WESTERLY       CLOUDY    73  61  65 NE9       29.82R
$$

CTZALL-231500-
CONNECTICUT

CITY           SKY/WX    TMP DP  RH WIND       PRES   REMARKS
BRADLEY INTL   MOSUNNY   76  55  48 E9        29.84R
HARTFORD       MOSUNNY   76  58  53 VRB7      29.82S
BRIDGEPORT     PTSUNNY   77  65  66 NE12      29.81R
DANBURY        MOSUNNY   75  65  70 E9        29.83S
GROTON         CLOUDY    74  62  66 NE13      29.81R
NEW HAVEN      MOSUNNY   77  65  66 NE8       29.81R
CHESTER        FAIR      73  61  64 NE8       29.83R
MERIDEN        PTSUNNY   77  61  57 NE7       29.82R
WILLIMANTIC    MOSUNNY   76  56  49 NE13      29.84R
OXFORD         PTSUNNY   73  61  64 NE9G17    29.83R
$$

MEZ002-015-021-024-NHZ003-005-008-011-012-014-VTZ005-008-231500-
NORTHERN NEW ENGLAND

CITY           SKY/WX    TMP DP  RH WIND       PRES   REMARKS
PORTLAND ME    MOSUNNY   68  41  37 NE10      29.89S
BANGOR ME      CLOUDY    67  43  41 NW8       29.90R
CONCORD NH     SUNNY     71  49  45 SE7       29.89R
MANCHESTER NH  MOSUNNY   71  46  40 NE10      29.88R
NASHUA NH      CLOUDY    70  49  47 E12       29.90R
PORTSMOUTH NH  PTSUNNY   69  48  48 E10       29.89R
JAFFREY NH     SUNNY     69  51  52 E6        29.90R
KEENE NH       SUNNY     71  53  52 VRB6      29.88R
BURLINGTON VT  CLOUDY    68  58  70 N5        29.87S
MT. WASHINGTON FOG       48  48 100 NW12        N/A  VSB 1/8
$$

NYZ052-076-231500-
EASTERN NEW YORK

CITY           SKY/WX    TMP DP  RH WIND       PRES   REMARKS
ALBANY         CLOUDY    72  60  66 CALM      29.84S
NEW YORK CITY  CLOUDY    77  70  79 NE5       29.79R
$$

ANZALL-231500-
MARINE OBSERVATIONS

STATION/POSITION TIME  TEMP    WIND        PRES    VSBY  WAVE
                       AIR SEA DIR/SP/G                  HT/PER
                 (UTC) (F)     (DEG/KT/KT) (MB)    (MI)  (FT/S)
BOSTON BUOY      1350   66 66   40/ 12/ 16 1010.7R         5/ 6
BUZZARDS BAY     1300   69      30/ 18/ 20 1008.9R
NANTUCKET SOUND  1350      72              1009.0R         1/ 3
MASS BAY-STELLWA 1304   66 65   50/ 14/ 16 1010.2R         5/ 6
ISLE OF SHOALS   1300   64      50/ 16/ 19 1010.9R
S OF BLOCK IS    1355      75                N/A           2/ 7
$$

......................KEY.........................
  SKY/WX - SKY CONDITION/PRESENT WEATHER
  TMP    - TEMPERATURE IN FAHRENHEIT
  DWPT   - DEWPOINT IN FAHRENHEIT
  RH     - RELATIVE HUMIDITY IN PERCENT
  WIND   - DIRECTION AND SPEED IN MPH
  PRES   - MEAN SEA LEVEL PRESSURE IN INCHES OF HG
  WCI    - WIND CHILL INDEX
  VSB    - VISIBILITY IN MILES
  HX     - HEAT INDEX
  TC     - TEMPERATURE IN CELSIUS
  VRB    - VARIABLE WIND DIRECTION
  N/A    - NOT AVAILABLE



USA.gov is the U.S. government's official web portal to all federal, state and local government web resources and services.